| time (UTC) | temp F | wind direction | speed MPH | gust MPH | rain 1hr in | rain 24hr in | rain mn in | humidity % | barometer mb |
| 20260506031822 | 52 | 240 | 5.0 | 0.0 | 0.00 | 0.00 | 0.00 | 93 | |
| 20260506021820 | 52 | 220 | 2.0 | 0.0 | 0.00 | 0.00 | 0.00 | 93 | |
| 20260506011920 | 54 | 240 | 5.0 | 0.0 | 0.00 | 0.00 | 0.00 | 93 | |
| 20260506001818 | 54 | 250 | 7.0 | 0.0 | 0.00 | 0.00 | 0.00 | 93 | |
| 20260505231818 | 55 | 10 | 5.0 | 0.0 | 0.00 | 0.00 | 0.00 | 93 | |
| 20260505221816 | 57 | 290 | 14.0 | 0.0 | 0.00 | 0.00 | 0.00 | 87 | |
| 20260505211851 | 57 | 290 | 16.0 | 0.0 | 0.00 | 0.00 | 0.00 | 82 | |
| 20260505201835 | 64 | 270 | 7.0 | 0.0 | 0.00 | 0.00 | 0.00 | 59 | |
| 20260505191852 | 64 | 40 | 5.0 | 0.0 | 0.00 | 0.00 | 0.00 | 59 | |
| 20260505181835 | 68 | 60 | 9.0 | 0.0 | 0.00 | 0.00 | 0.00 | 52 | |
| 20260505171818 | 70 | 100 | 5.0 | 0.0 | 0.00 | 0.00 | 0.00 | 43 | |
| 20260505161917 | 72 | 110 | 9.0 | 0.0 | 0.00 | 0.00 | 0.00 | 43 | |
| 20260505151818 | 68 | 120 | 16.0 | 0.0 | 0.00 | 0.00 | 0.00 | 52 | |
| 20260505121819 | 75 | 140 | 7.0 | 0.0 | 0.00 | 0.00 | 0.00 | 29 | |
| 20260505111818 | 73 | 240 | 2.0 | 0.0 | 0.00 | 0.00 | 0.00 | 38 | |
| 20260505101819 | 72 | 240 | 5.0 | 0.0 | 0.00 | 0.00 | 0.00 | 37 | |
| 20260505091818 | 70 | 230 | 2.0 | 0.0 | 0.00 | 0.00 | 0.00 | 43 | |
| 20260505081819 | 66 | 210 | 2.0 | 0.0 | 0.00 | 0.00 | 0.00 | 52 | |
| 20260505071818 | 64 | 210 | 5.0 | 0.0 | 0.00 | 0.00 | 0.00 | 48 | |
| 20260505061821 | 61 | 80 | 2.0 | 0.0 | 0.00 | 0.00 | 0.00 | 59 | |
| 20260505051819 | 57 | 80 | 5.0 | 0.0 | 0.00 | 0.00 | 0.00 | 76 |